SCP
0 0 0 0 0 0 0 0 0 0 0 0 0 0 0 0 0 0 0 0 0 0 0 0 0 0 0 0 0 0 0 0 0 0 0 0 0 0 0 0 0 0 1 1 1 0 0 0 0
0 0 0 0 0 0 0 0 0 0 0 0 0 0 0 0 0 0 0 0 0 0 0 0 0 0 0 0 0 0 0 0 0 0 0 0 0 0 0 0 0 0 0 0 1 0 0 0 0
0 0 0 0 0 0 0 0 0 0 0 0 0 0 0 0 0 0 0 0 0 0 0 0 0 0 0 0 0 0 0 0 0 0 0 0 0 0 0 0 0 0 0 0 0 0 0 0 0
0 0 0 0 0 0 0 0 0 0 0 0 0 0 0 0 0 0 0 0 0 0 0 0 0 0 0 0 0 0 0 0 0 0 0 0 0 0 0 0 0 0 0 0 0 0 0 0 0
0 0 0 0 0 0 0 0 0 0 0 0 0 0 0 0 0 0 0 0 0 0 0 0 0 0 0 0 0 0 0 0 0 0 0 0 0 0 0 0 0 0 0 0 0 0 0 0 0
0 0 0 0 0 0 0 0 0 0 0 0 0 0 0 0 0 0 0 0 0 0 0 0 0 0 0 0 0 0 0 0 0 0 0 0 0 0 0 0 0 0 0 0 0 0 0 0 0
0 0 0 0 0 0 0 0 0 0 0 0 0 0 0 0 0 0 0 0 0 0 0 0 0 0 0 0 0 0 0 0 0 0 0 0 0 0 0 0 0 0 0 0 0 0 0 0 0
0 0 0 0 0 0 0 0 0 0 0 0 0 0 0 0 0 0 0 0 0 0 0 0 0 0 0 0 0 0 0 0 0 0 0 0 0 0 0 0 0 1 1 1 0 0 0 0 0
0 0 0 0 0 0 0 0 0 1 1 1 0 0 0 0 1 1 1 0 0 0 0 0 0 0 0 0 0 0 0 0 0 0 0 0 0 0 0 0 0 0 0 1 0 0 0 0 0
0 0 0 0 0 0 0 0 0 1 1 1 1 0 1 1 1 1 1 0 0 0 0 0 0 0 0 0 0 0 0 0 0 0 0 0 0 0 0 0 0 0 0 0 0 0 0 0 0
0 0 0 0 0 0 0 0 0 1 1 1 1 1 1 1 1 1 1 1 0 0 0 0 0 0 0 0 0 0 0 0 0 0 0 0 0 0 0 0 0 0 0 0 0 0 0 0 0
0 0 0 0 0 0 0 0 0 0 0 1 1 1 1 1 1 1 1 1 1 0 0 0 0 0 0 0 0 0 0 0 0 0 0 0 0 0 0 0 0 0 0 0 0 0 0 0 0
0 0 0 0 0 0 0 0 0 0 0 1 1 1 1 1 1 1 1 1 1 1 0 0 0 0 0 0 0 0 0 0 0 0 0 0 0 0 0 0 0 0 0 0 0 0 0 0 0
0 0 0 0 0 0 0 0 0 0 0 1 1 1 1 1 1 1 0 1 1 1 1 0 0 0 0 0 0 0 0 0 0 0 0 0 0 0 0 0 0 0 0 0 0 0 0 0 0
0 0 0 0 0 0 0 0 0 0 1 1 1 1 1 0 0 0 0 0 0 1 1 1 0 0 0 0 0 0 0 0 0 0 0 0 0 0 0 0 0 0 0 0 0 0 0 0 0
0 0 0 0 0 0 0 0 0 0 1 1 1 1 1 1 0 0 0 0 0 0 1 1 1 0 0 0 0 0 0 0 0 0 0 0 0 0 0 0 0 0 0 0 0 0 0 0 0
0 0 0 0 0 0 0 0 0 0 1 1 1 1 1 1 0 0 0 0 0 0 1 1 1 1 0 0 0 0 0 0 0 0 0 0 0 0 0 0 0 0 0 0 0 0 0 0 0
0 0 0 0 0 0 0 0 0 0 1 1 1 1 1 1 1 0 0 0 0 0 0 1 1 1 1 1 0 0 0 0 0 0 0 0 0 0 0 0 0 0 0 0 0 0 0 0 0
0 0 0 0 0 0 0 0 0 0 0 1 1 1 1 1 1 1 1 0 0 0 0 0 1 1 1 1 1 1 0 0 0 0 0 0 0 0 0 0 0 0 0 0 0 0 0 0 0
0 0 0 0 0 0 0 0 0 0 0 0 1 1 1 1 0 1 1 0 0 0 0 0 1 1 1 1 1 1 1 1 1 1 1 0 0 0 0 0 0 0 0 0 0 0 0 0 0
0 0 0 0 0 0 0 0 0 0 0 0 0 0 0 0 0 0 1 0 0 0 0 0 0 1 1 1 1 1 1 1 1 1 1 1 1 0 0 0 0 0 0 0 0 0 0 0 0
0 0 0 0 0 0 0 0 0 0 0 0 0 0 0 0 0 0 0 0 0 0 0 0 0 1 1 1 1 1 1 1 1 1 1 1 1 1 1 0 0 0 0 0 0 0 0 0 0
0 0 0 0 0 0 0 0 0 0 0 0 0 0 0 0 0 0 0 0 0 0 0 0 0 0 1 1 1 1 1 1 1 1 1 0 0 0 0 0 0 0 0 0 0 0 0 0 0
0 0 0 0 0 0 0 0 0 0 0 0 0 0 0 0 0 0 0 0 0 0 0 0 0 0 0 0 0 1 1 1 1 1 0 0 0 0 0 0 0 0 0 0 0 0 0 0 0
0 0 0 0 0 0 0 0 0 0 0 0 0 0 0 0 0 0 0 0 0 0 0 0 0 0 0 0 0 0 0 1 0 0 0 0 0 0 0 0 0 0 0 0 0 0 0 0 0
0 0 0 0 0 0 0 0 0 0 0 0 0 0 0 0 0 0 0 0 0 0 0 0 0 0 0 0 0 0 0 0 0 0 0 0 0 0 0 0 0 0 0 0 0 0 0 0 0
0 0 0 0 0 0 0 0 0 0 0 0 0 0 0 0 0 0 -0 0 0 0 0 0 0 0 0 0 0 0 0 0 0 0 0 0 0 0 0 0 0 0 0 0 0 0 0 0 0
0 0 0 0 0 0 0 0 0 0 0 0 0 0 0 0 0 0 0 0 0 0 0 0 0 0 0 0 0 0 0 0 0 0 0 0 0 0 0 0 0 0 0 0 0 0 0 0 0
0 0 0 0 0 0 0 0 0 0 0 0 0 0 0 0 0 0 0 0 0 0 0 0 0 0 0 0 0 0 0 0 0 0 0 0 0 0 0 0 0 0 0 0 0 0 0 0 0
0 0 0 0 0 0 0 0 0 0 0 0 0 0 0 0 0 0 0 0 0 0 0 0 0 0 0 0 0 0 0 0 0 0 0 0 0 0 0 0 0 0 0 0 0 0 0 0 1
Wind_Speed
11 4 1 4 7 6 0 2 2 3 2 2 2 4 6 4 2 1 2 2 4 4 3 5 7 8 9 9 8 8 8 8 9 9 9 9 10 10 10 10 10 10 10 10 10 11 11 11 11
4 2 4 6 6 2 2 2 2 2 2 1 4 5 5 4 3 3 3 3 4 5 4 4 6 7 8 8 7 7 7 7 8 8 8 8 9 9 9 9 9 9 9 9 9 10 10 9 9
3 3 5 5 4 4 2 2 2 3 3 3 4 4 3 3 3 2 3 3 5 5 4 5 7 7 7 7 6 6 6 6 6 7 7 7 8 8 8 8 8 8 8 8 8 8 8 8 7
2 5 6 5 3 2 2 2 3 3 4 6 4 5 4 5 4 3 4 6 7 6 5 5 7 7 6 6 6 5 5 5 5 6 6 6 6 7 7 7 7 6 7 7 7 7 7 7 6
4 5 5 2 1 1 1 3 2 3 3 4 4 4 3 7 7 6 6 6 7 6 6 6 8 7 5 4 4 5 4 4 4 5 5 4 5 6 6 6 6 6 6 6 6 6 6 5 5
5 5 4 2 2 2 1 2 2 4 3 3 3 3 3 6 7 6 6 7 7 7 6 5 7 7 6 5 4 3 3 3 4 4 4 3 3 4 6 6 5 5 5 5 5 5 5 4 4
5 4 4 3 2 1 3 1 3 2 4 4 2 3 2 7 6 5 6 7 8 8 7 7 6 5 5 6 6 5 3 3 2 2 3 2 2 2 3 4 5 4 4 4 4 4 3 3 3
4 5 3 2 2 1 3 2 3 4 3 3 4 4 2 3 4 5 7 8 8 8 7 7 6 6 5 4 5 5 5 4 4 3 2 1 1 1 2 2 3 4 4 4 4 3 3 2 2
4 5 2 2 3 0 3 2 3 4 6 6 5 4 3 3 5 7 7 8 7 7 6 6 6 6 5 4 4 4 4 5 5 4 5 3 1 1 0 1 2 3 3 4 4 3 2 2 1
4 3 3 1 2 2 4 4 2 5 6 5 5 7 6 6 7 7 6 5 5 5 5 5 5 5 5 4 4 3 3 3 4 3 4 3 2 2 1 1 2 3 3 4 4 3 2 1 1
4 3 3 1 1 3 4 4 4 4 4 2 2 4 5 6 6 5 4 3 3 2 4 4 4 4 4 3 3 3 3 3 3 4 3 3 2 2 2 1 1 1 2 2 2 2 1 1 1
4 3 3 2 2 3 3 2 4 5 1 2 3 4 5 5 4 3 2 2 3 3 3 4 4 4 4 4 3 3 2 2 3 3 3 2 1 1 1 1 1 1 0 1 1 1 2 2 2
4 3 4 5 6 5 6 4 3 3 2 4 5 6 5 4 2 2 2 3 2 3 2 2 3 3 3 3 3 2 2 2 3 3 3 3 1 1 1 1 1 1 1 1 1 2 2 3 3
3 4 3 3 3 3 5 3 3 2 2 4 5 4 3 2 2 2 3 2 1 1 1 2 2 2 2 2 2 2 2 2 2 2 3 3 2 2 1 1 1 1 2 2 2 3 3 2 2
2 3 4 3 1 0 3 3 1 1 2 4 3 2 2 2 2 1 0 0 0 0 1 1 1 2 2 1 2 1 1 2 2 2 3 3 3 3 2 1 1 2 2 2 2 2 2 2 2
3 3 1 3 2 1 4 3 2 0 3 2 1 1 1 1 1 1 1 1 1 1 0 1 1 1 1 1 1 1 1 1 1 1 2 3 3 3 2 2 2 2 1 1 1 1 1 2 3
3 1 0 3 3 2 3 3 2 1 2 2 1 1 0 1 2 2 2 1 1 0 0 0 1 1 1 1 1 1 1 1 1 2 2 3 3 3 2 2 3 2 1 1 2 1 1 2 3
2 2 1 1 3 3 2 2 2 1 2 2 1 1 1 1 3 2 2 1 1 1 1 0 1 1 1 1 1 1 2 1 2 2 2 3 3 3 2 2 3 2 2 2 2 2 2 2 2
3 3 1 1 1 1 1 3 4 2 1 1 1 1 2 2 3 2 2 2 2 2 2 1 1 2 1 1 1 1 2 2 2 2 3 3 3 3 2 2 3 3 2 3 3 2 3 3 1
2 1 0 1 2 0 1 4 4 2 2 3 2 2 2 2 3 3 2 2 2 2 2 2 1 1 1 1 1 1 1 1 1 2 2 3 3 3 2 2 2 2 2 3 3 3 2 2 1
0 2 2 2 2 1 1 4 3 2 1 1 1 2 2 2 2 3 2 2 2 2 2 2 2 2 2 1 1 2 1 1 1 2 2 3 3 2 2 2 2 2 2 3 3 2 3 3 3
1 1 1 1 0 2 1 3 4 2 1 2 3 2 3 3 2 2 2 3 2 3 3 2 2 2 2 1 1 1 1 2 3 3 3 3 3 3 3 3 3 3 3 3 3 2 3 3 3
1 0 0 1 1 1 1 2 6 1 2 4 4 3 3 3 3 2 2 2 3 2 2 3 3 3 2 1 1 1 2 3 2 2 3 3 3 3 3 3 3 3 3 4 4 3 3 3 4
0 2 2 2 2 2 3 3 6 3 4 3 2 2 3 3 3 3 2 2 3 3 3 3 3 3 4 3 2 1 2 3 3 4 4 3 3 3 4 4 4 4 4 4 4 4 4 4 4
2 3 3 4 2 4 1 3 7 4 3 3 3 3 3 2 2 3 3 3 4 4 4 4 4 4 4 4 3 3 3 3 3 4 4 4 3 3 4 4 4 4 5 5 4 4 5 5 5
0 3 4 3 3 4 1 5 6 2 1 1 1 1 2 2 2 2 2 2 3 4 4 4 4 4 4 4 4 4 4 3 3 4 4 4 4 4 5 5 5 5 5 5 5 4 5 4 5
2 1 1 4 1 2 4 5 6 0 2 2 2 2 2 2 2 2 2 2 3 3 3 3 3 4 4 4 4 4 4 4 4 4 4 3 4 4 5 5 5 5 5 5 5 4 5 4 5
1 3 3 3 2 3 5 5 4 2 2 2 2 2 4 3 3 3 3 2 2 2 3 3 2 3 4 4 4 4 4 4 4 4 5 5 5 5 5 5 6 6 5 5 5 5 5 5 5
2 2 2 3 3 3 3 7 4 4 3 3 3 3 3 3 3 3 3 2 2 2 3 3 3 3 4 4 4 4 4 4 4 4 5 5 5 6 6 6 6 6 6 6 5 6 6 6 6
2 3 4 3 2 3 2 8 2 2 2 2 3 4 3 3 3 3 3 3 2 2 3 3 3 3 4 4 4 5 5 5 5 5 5 5 5 5 6 6 6 6 6 6 6 7 6 6 7
Wind_Direction
332 334 46 57 56 55 76 282 300 338 359 8 47 91 113 103 105 118 348 48 77 108 117 131 132 135 133 127 124 122 126 128 125 123 126 124 120 118 114 112 111 110 110 109 107 104 100 97 96
322 343 51 60 85 95 276 287 313 319 306 46 57 62 73 59 37 57 14 11 89 104 98 101 110 121 128 130 131 129 127 128 127 126 124 126 125 123 118 117 115 112 110 110 112 108 104 100 97
335 41 74 74 105 164 224 294 272 312 14 50 63 50 61 25 11 18 4 59 79 83 76 85 98 108 115 122 128 130 129 129 129 128 129 128 129 129 124 121 120 118 115 115 114 112 108 104 99
51 49 59 81 135 203 224 291 297 337 31 30 69 68 66 29 3 3 56 76 76 64 59 73 87 99 111 115 117 123 130 134 131 130 131 131 131 134 133 129 126 126 125 124 121 117 112 106 99
58 77 75 81 196 228 273 313 356 34 36 16 60 92 62 12 21 49 69 76 80 68 60 68 73 75 84 98 112 112 116 119 121 125 131 138 139 141 143 141 136 136 136 133 129 126 121 114 105
60 74 105 175 222 275 319 340 41 47 33 23 55 96 78 17 28 47 60 63 65 63 53 57 67 67 66 63 70 84 97 108 110 114 119 124 136 148 155 153 150 145 148 150 144 136 135 130 118
102 103 144 165 194 305 332 19 61 64 41 10 14 91 52 18 21 46 57 61 58 54 48 40 41 50 58 56 50 47 50 66 83 105 114 110 112 138 151 162 163 163 167 167 162 155 149 146 133
115 109 119 150 161 289 335 56 65 64 50 18 53 82 16 352 28 57 60 59 56 49 44 37 35 33 35 47 50 45 39 38 39 44 61 95 123 141 142 161 175 182 187 186 179 175 174 173 153
83 92 159 181 167 225 3 69 55 60 77 58 51 55 20 81 83 69 56 49 47 43 37 31 31 28 27 34 41 47 43 39 42 41 35 30 21 34 145 203 203 203 198 197 196 202 202 195 187
81 135 186 164 144 107 48 49 46 70 54 48 41 39 51 89 88 82 69 62 52 40 32 27 28 26 26 27 32 29 31 32 34 29 28 22 10 355 349 240 223 230 228 219 214 213 215 211 202
96 142 145 79 89 96 77 49 30 100 55 48 64 51 73 84 85 83 80 75 61 53 40 27 25 26 27 23 28 26 22 22 27 27 22 17 16 8 6 0 336 289 261 252 236 223 212 206 209
93 63 101 77 55 62 66 64 57 63 83 50 77 100 105 97 97 101 92 56 44 45 34 24 25 30 25 24 22 28 24 17 15 11 19 21 8 355 349 342 341 337 324 288 268 242 230 224 228
83 83 72 79 75 72 74 72 84 40 12 44 74 86 98 111 113 79 66 58 49 40 24 17 25 29 27 33 23 24 19 17 9 14 15 14 355 325 318 315 325 320 302 266 262 266 249 239 239
112 99 75 56 75 63 73 40 68 347 43 64 73 84 101 107 93 64 54 56 49 21 357 4 22 16 27 31 21 19 20 19 20 14 9 8 358 339 315 308 303 304 302 280 259 251 252 249 247
102 75 39 22 39 114 88 10 330 304 80 73 69 74 69 52 56 58 16 84 218 309 340 354 10 11 17 10 9 18 21 28 17 5 4 3 4 353 339 304 302 302 304 292 289 284 276 272 266
67 71 29 347 25 10 122 245 300 29 125 107 87 60 58 13 356 322 349 3 12 20 4 349 357 352 346 349 359 355 13 26 9 3 357 353 356 353 346 331 308 316 315 312 288 293 297 283 278
49 112 221 336 9 54 137 217 278 112 137 139 166 223 222 341 343 329 342 351 354 316 311 314 330 333 304 317 356 357 9 11 2 4 358 349 350 347 340 326 326 332 322 302 300 289 271 280 289
171 148 128 259 347 53 131 236 308 359 145 181 213 237 234 271 281 304 329 351 355 346 339 326 314 328 322 315 1 9 7 352 357 348 343 350 347 347 345 339 338 342 334 318 310 299 276 261 278
119 123 144 258 325 62 206 252 271 275 268 255 253 250 249 260 288 335 352 359 13 6 358 357 356 338 359 317 279 286 290 309 319 320 338 338 340 340 340 338 333 337 322 315 314 297 280 265 279
105 117 280 317 345 43 266 276 267 242 222 223 225 240 251 292 338 346 357 11 5 348 334 339 330 331 319 286 268 291 291 280 284 311 319 328 328 329 323 322 319 322 315 323 328 321 299 278 247
14 197 213 253 336 359 337 303 275 269 259 306 278 255 257 255 283 309 327 329 344 343 323 319 304 308 303 329 16 13 14 354 341 329 313 310 307 308 312 308 305 310 301 297 299 303 294 288 269
269 261 212 212 108 300 47 287 283 267 288 275 268 269 266 282 288 294 308 318 313 303 311 316 316 325 327 353 51 57 331 289 291 306 306 315 306 301 299 305 300 297 288 293 291 284 284 281 282
234 290 148 187 170 317 319 239 284 320 268 260 257 258 262 268 270 287 297 294 305 316 328 330 341 344 344 357 317 253 278 279 302 324 325 323 316 311 307 301 291 287 284 288 291 286 276 264 270
144 64 61 54 74 287 235 200 281 240 229 253 264 274 285 297 298 300 309 329 343 352 357 355 359 354 352 346 332 301 288 304 323 325 320 317 313 310 313 309 297 289 285 284 281 276 272 265 266
52 85 39 10 2 256 219 211 253 254 228 221 249 273 294 313 319 328 338 347 351 354 357 0 5 358 355 354 347 329 309 302 299 305 307 308 305 302 306 310 303 296 288 284 281 275 273 266 267
65 127 146 187 232 284 291 233 252 263 293 302 262 262 328 332 332 333 332 338 339 341 351 2 3 357 357 355 345 343 345 334 319 314 309 304 302 300 309 309 303 300 300 297 288 277 276 275 269
129 137 144 125 69 302 274 279 294 205 354 357 0 356 312 306 308 308 319 332 335 337 338 343 349 348 349 348 344 346 348 341 329 324 317 313 314 317 323 315 307 307 309 303 295 285 282 278 271
110 143 103 117 144 278 291 270 252 264 282 326 312 285 283 297 308 308 313 320 322 322 327 343 348 337 335 342 341 343 338 333 332 336 334 327 325 324 322 324 320 316 314 311 303 295 293 288 285
98 109 112 117 153 169 273 274 229 216 214 221 247 266 278 287 290 294 301 312 320 340 348 341 337 343 341 338 336 338 335 332 334 333 331 327 328 329 328 325 319 317 315 311 306 299 300 297 296
181 177 157 159 227 200 228 270 273 213 225 228 260 279 295 294 293 293 299 315 334 340 342 342 341 344 336 334 336 336 336 338 339 334 331 330 328 326 324 322 320 320 318 313 307 304 302 297 296